COSMOS 2251 DEB

Satellite information

Favourite Embed

Satellite Type and Status

DEBRISIN ORBIT

Key statistics

Satellite COSMOS 2251 DEB at a glance.

Uptime

11648

Days in orbit

Revolutions

≈ 14.6

Per day

Orbit

LEO

Low Earth Orbit

Inclination

74.0

Latest

Satellite identification and parameters

Extended collection of information and parameters for COSMOS 2251 DEB.

Object identification

Identified? True

Debris? True

Object name: COSMOS 2251 DEB

International designator: 1993-036EP

Object number (NORAD): 33934

Object ID (CCSDS): 33934

Country: COMMONWEALTH OF INDEPENDENT STATES (CIS)

Current information (Y/N): Y

RCS size: MEDIUM

Orbital parameters

Period: 98.819 minutes

Inclination: 74.0378 deg

SMA: 7080.314 km

Apoapsis: 715.217 km

Periapsis: 689.141 km

RAAN: 160.7381 deg

Eccentricy: 0.0018414

Argument of periapsis: 328.8659 deg

Mean anomaly: 31.1412 deg

Mean motion: 14.57216173 rev/day

Mean motion (dot): 0.00003727 rev/day2

B* drag term: 0.0008293 1/REarth

Two-line elements (TLE)

Creation date: May 6, 2025, 3:54 a.m.

Reference frame: TEME

Reference center: EARTH

Epoch: May 5, 2025, 7:31 p.m. UTC

TLE line 0: 0 COSMOS 2251 DEB

TLE line 1: 1 33934U 93036EP 25125.81368669 .00003727 00000-0 82930-3 0 9999

TLE line 2: 2 33934 74.0378 160.7381 0018414 328.8659 31.1412 14.57216173855195

Live tracking on map

Real-time ground track for satellite COSMOS 2251 DEB.

In-orbit conjunctions

A list of the most updated potential collisions computed for object COSMOS 2251 DEB.

Target Orbit TCA Probability of collision Miss distance Type
COSMOS 2251 DEB LEO 2024-12-02 06:23:16 0.0001130783 92.0 (m) DEBRIS
CZ-6A DEB LEO 2024-11-17 10:46:32 0.003384361 37.0 (m) DEBRIS

Associated space launch

Military communications satellite. Destroyed in a collision with Iridium 33.

COSMOS 2251 DEB was lifted into orbit during the mission ‘Kosmos-3M | Strela-2M 51’, on board a Kosmos-3M space rocket.

The launch took place on June 16, 1993, 4:17 a.m. from 132/1 (132L).

For more information about the launch, click the button.

Launch to space Kosmos-3M | Strela-2M 51
Kosmos-3M | Strela-2M 51

Agency: N/A

Status: Launch Successful

Launch date: June 16, 1993, 4:17 a.m. UTC

Rocket: Kosmos-3M

Launch pad: 132/1 (132L)

Location: Plesetsk Cosmodrome, Russian Federation

...

Latest news about this satellite

There are no fresh news available about this satellite. Check back as we update our databases every day.


Newsletter sign-up

Weekly statistics, charts and insights to help you stay on top of the space industry.